Location: Newark
(41.6500°N, 71.4833°W)
Time: 18:44:24
(UTC+00:00)

deb Explorer IX - Pass Details

Date: 29 January 2020
Orbit: 549 x 1099 km, 38.8° (Epoch: 21 February)

Event Time Altitude Azimuth Distance (km) Brightness Sun altitude
Rises 04:38:13 0° 275° (W) 3,823 - -66.0°
Reaches altitude 10° 04:40:55 10° 272° (W) 2,908 - -66.1°
Maximum altitude 04:48:00 60° 195° (SSW) 1,239 - -66.3°
Drops below altitude 10° 04:55:05 10° 117° (ESE) 2,898 - -66.4°
Sets 04:57:46 0° 114° (ESE) 3,810 - -66.4°
